Temp_Advection
nan nan nan nan nan nan nan nan nan nan nan nan nan nan nan nan nan nan nan nan nan nan
nan 0 0 0 0 0 0 0 -0 -0 -0 -0 -0 -0 0 0 0 0 -0 -0 -0 nan
nan 0 0 0 0 0 0 0 0 -0 -0 -0 -0 -1 -0 0 0 0 0 0 -0 nan
nan 0 0 0 0 0 0 0 0 0 -0 -0 -0 -0 -1 -1 -0 0 0 -0 -0 nan
nan 0 0 0 0 0 0 0 -0 -0 0 -0 -0 -0 -0 -1 -1 -1 -0 0 -0 nan
nan 0 0 1 0 0 0 0 0 -0 -0 0 0 -0 -0 -0 -0 -1 -1 -0 0 nan
nan 1 1 1 1 0 0 0 0 0 0 -0 0 0 0 -0 -0 -0 -0 -1 -0 nan
nan 2 2 1 1 0 0 0 0 0 0 -0 -0 0 0 0 -0 -0 -0 0 -0 nan
nan 2 2 1 1 1 1 1 0 0 0 0 0 -0 -0 -0 -0 -0 -0 -0 -0 nan
nan 2 2 1 1 1 1 1 0 0 0 -0 0 0 0 -0 -0 -0 -0 -0 -1 nan
nan 2 3 2 2 1 1 1 0 0 0 -0 -0 0 0 0 0 0 0 0 -0 nan
nan 2 3 2 2 2 1 1 1 1 0 -0 0 0 -0 -0 -0 -0 -0 -0 -0 nan
nan 2 2 3 3 3 2 1 1 1 0 0 0 0 0 -0 -1 -1 -0 -0 -0 nan
nan nan nan nan nan nan nan nan nan nan nan nan nan nan nan nan nan nan nan nan nan nan
Wind_Speed
6 7 7 6 7 7 9 10 12 13 15 16 16 15 14 12 10 9 8 9 10 11
9 8 8 9 9 9 10 11 13 14 14 14 14 16 16 14 13 10 10 11 10 12
14 13 11 11 11 11 11 11 12 13 15 15 14 13 14 16 15 13 13 12 12 13
19 18 16 14 13 13 12 12 12 13 13 13 14 14 14 14 16 16 14 14 13 12
24 24 21 19 17 16 15 13 13 14 14 14 14 14 14 14 14 15 17 15 15 14
31 29 26 23 22 20 18 16 15 14 14 14 14 14 14 14 15 16 16 17 17 15
36 32 30 27 26 24 21 20 18 17 16 15 15 15 15 15 15 15 17 17 18 18
38 36 35 33 31 28 26 24 22 20 18 16 15 16 17 18 18 19 18 19 19 20
41 41 39 37 35 32 30 27 24 23 20 18 16 16 17 19 21 21 22 22 21 21
44 44 43 40 39 36 34 29 27 27 25 21 18 18 19 19 21 22 23 23 24 23
44 44 45 43 41 38 35 32 31 30 27 24 21 20 21 22 22 22 22 23 23 24
43 44 44 44 42 40 36 35 33 31 29 27 23 22 22 22 24 24 24 24 25 26
39 42 42 42 41 38 37 36 35 33 31 28 25 22 23 22 24 26 25 26 26 26
34 37 38 37 38 37 35 36 35 32 30 29 27 24 24 23 24 26 26 27 29 29
Wind_Direction
269 274 285 301 319 335 345 351 355 355 354 350 350 351 349 347 342 328 311 310 301 296
259 271 278 288 303 317 327 337 345 349 349 346 342 341 346 344 339 337 329 324 313 306
250 260 271 279 285 295 307 318 332 338 339 338 339 340 337 336 336 334 330 327 321 319
250 255 260 270 280 282 289 300 314 323 327 331 333 335 336 332 328 330 334 328 325 318
252 254 257 262 269 276 279 285 296 308 318 325 328 329 329 329 329 325 326 330 329 325
247 251 256 258 263 269 274 277 284 294 305 314 318 319 319 321 324 325 326 325 328 331
248 252 254 255 257 261 268 272 276 282 291 300 307 310 312 314 315 318 321 322 323 327
248 249 250 250 253 254 259 264 266 270 279 288 296 302 306 310 313 315 317 320 321 321
248 248 247 247 250 251 254 257 261 263 267 273 283 293 301 306 308 312 314 315 316 316
247 247 245 245 246 247 249 252 255 256 260 265 274 285 293 298 301 306 310 313 313 311
247 246 244 244 244 245 246 250 253 254 257 261 267 275 283 290 294 298 302 305 307 308
248 245 242 241 242 243 245 248 252 253 256 262 264 270 276 281 288 293 298 301 302 304
248 245 241 240 239 241 243 246 248 250 253 258 265 268 274 279 282 286 291 295 297 299
251 247 242 238 235 236 239 245 247 249 252 256 260 267 271 274 277 282 287 291 294 296
Height
1556 1556 1556 1557 1556 1555 1555 1555 1555 1553 1552 1550 1549 1547 1545 1545 1544 1545 1547 1546 1545 1544
1552 1553 1554 1554 1554 1553 1553 1553 1552 1551 1550 1550 1549 1547 1545 1544 1543 1543 1543 1542 1543 1543
1549 1550 1550 1551 1550 1550 1550 1550 1550 1549 1549 1548 1547 1546 1544 1543 1542 1541 1539 1538 1537 1536
1544 1545 1546 1546 1546 1547 1547 1547 1547 1547 1547 1546 1545 1543 1542 1541 1539 1537 1536 1534 1534 1534
1538 1539 1540 1542 1542 1543 1543 1543 1544 1544 1543 1543 1542 1540 1539 1538 1537 1536 1533 1532 1531 1531
1531 1532 1534 1536 1537 1538 1538 1538 1539 1539 1539 1539 1538 1537 1537 1535 1534 1532 1531 1530 1528 1528
1522 1524 1527 1529 1530 1531 1532 1532 1533 1534 1534 1534 1534 1534 1532 1531 1530 1529 1527 1526 1525 1524
1514 1517 1519 1522 1524 1526 1526 1527 1529 1529 1530 1530 1530 1529 1528 1526 1525 1523 1523 1522 1520 1518
1504 1507 1510 1513 1515 1518 1520 1522 1524 1524 1524 1524 1523 1522 1521 1520 1519 1518 1517 1517 1516 1514
1495 1497 1499 1503 1505 1508 1511 1513 1515 1517 1518 1517 1516 1515 1515 1514 1512 1512 1512 1511 1511 1509
1484 1487 1490 1494 1497 1500 1502 1505 1507 1509 1510 1511 1512 1509 1509 1508 1507 1506 1506 1506 1505 1504
1475 1477 1480 1483 1487 1491 1495 1497 1499 1501 1504 1504 1506 1505 1503 1502 1501 1500 1500 1499 1499 1497
1466 1468 1469 1473 1477 1481 1485 1488 1489 1492 1494 1496 1498 1500 1499 1497 1494 1493 1493 1493 1491 1491
1457 1461 1465 1467 1469 1472 1475 1479 1483 1483 1486 1487 1489 1491 1493 1492 1490 1489 1486 1484 1484 1484